Skip Page Navigation
NASA JPL Caltech
NASA Logo - Jet Propulsion Laboratory + View the NASA Portal
+ Near-Earth Object (NEO) Program
Search JPL
JPL Home Earth Solar System Stars & Galaxies Technology
JPL Solar System Dynamics
BODIES ORBITS EPHEMERIDES TOOLS PHYSICAL DATA DISCOVERY FAQ SITE MAP
JPL Small-Body Database Browser
Search: [ help ]  
262959 (2007 DN84)
Classification: Main-belt Asteroid          SPK-ID: 2262959
Ephemeris | Orbit Diagram | Orbital Elements | Physical Parameters | Discovery Circumstances ]

[ hide orbit diagram ]
Orbit Diagram
Note: Make sure you have Java enabled on your browser to see the applet. This applet is provided as a 3D orbit visualization tool. The applet was implemented using 2-body methods, and hence should not be used for determining accurate long-term trajectories (over several years or decades) or planetary encounter circumstances. For accurate long-term ephemerides, please instead use our Horizons system.
Orbit Viewer

Additional Notes: the orbits shown in the applet are color coded. The planets are white lines, and the asteroid/comet is a blue line. The bright white line indicates the portion of the orbit that is above the ecliptic plane, and the darker portion is below the ecliptic plane. Likewise for the asteroid/comet orbit, the light blue indicates the portion above the ecliptic plane, and the dark blue the portion below the ecliptic plane.

Orbit Viewer applet originally written and kindly provided by Osamu Ajiki (AstroArts), and further modified by Ron Baalke (JPL).


Orbital Elements at Epoch 2456400.5 (2013-Apr-18.0) TDB
Reference: MPO188850 (heliocentric ecliptic J2000)
 Element Value Uncertainty (1-sigma)   Units 
e 0.0474979 n/a  
a 2.7109904 n/a AU
q 2.5822240 n/a AU
i 5.44385 n/a deg
node 299.89861 n/a deg
peri 87.02718 n/a deg
M 256.48383 n/a deg
tp 2456869.3091567
(2014-Jul-30.80915670)
n/a JED
period 1630.3858267
4.46
n/a
n/a
d
yr
n 0.22080663 n/a deg/d
Q 2.8397568 n/a AU
  Orbit Determination Parameters
   # obs. used (total)      74  
   first obs. used      2000-??-??  
   last obs. used      2011-01-03  
   # oppositions      6  
   planetary ephem.      DE403  
   condition code      0  
   fit RMS      0.47  
   data source      MPC:mpu  
   producer      MPCADO  

Additional Information
 T_jup = 3.355 

Ephemeris | Orbit Diagram | Orbital Elements | Physical Parameters | Discovery Circumstances ]

Physical Parameter Table
Parameter Symbol Value Units Sigma Reference Notes
absolute magnitude H 16.9 mag n/a MPO188850  

262959 (2007 DN84)          Discovered 2007-Feb-22 by Calvin College at Calvin-Rehoboth (G98)
Reference: 20110119/Numbers.arcLast Updated: 2011-01-25

Alternate Designations
 2007 DN84 = 2005 UK353 
Ephemeris | Orbit Diagram | Orbital Elements | Physical Parameters | Discovery Circumstances ]
ABOUT SSD CREDITS/AWARDS PRIVACY/COPYRIGHT GLOSSARY LINKS
FirstGov 2013-Jun-19 04:43 UT
(server date/time)  
NASA Home Page
Site Manager:   Donald K. Yeomans
Webmaster  Alan B. Chamberlin